Change the Weather History Date:

Saturday, October 6, 2012

  Actual Average Record
Temperature  
Mean Temperature 51 °F -  
Max Temperature 61 °F - 93 °F (1951)
Min Temperature 41 °F - 31 °F (1980)
Degree Days  
Heating Degree Days 14    
Month to date heating degree days 32  
Since 1 July heating degree days 69  
Cooling Degree Days 0    
Month to date cooling degree days 0  
Moisture  
Dew Point 38 °F    
Average Humidity 63    
Maximum Humidity 93    
Minimum Humidity 33    
Precipitation  
Precipitation 0.10 in - 1.49 in (1949)
Month to date precipitation 2.08  
Sea Level Pressure  
Sea Level Pressure 30.16 in    
Wind  
Wind Speed 9 mph (North)    
Max Wind Speed 20 mph    
Max Gust Speed 26 mph    
Visibility 9 miles    
Events Rain    
T = Trace of Precipitation, MM = Missing Value Source: NWS Daily Summary

Daily Weather History Graph

Daily Weather History Graph

Search for Another Location

Airport or City:

Trip Planner

Search our weather history database for the weather conditions in past years. The results will help you decide how hot, cold, wet, or windy it might be!

Date:

Astronomy

Oct. 06, 2012 Rise Set
Actual Time 6:49 AM CDT 6:25 PM CDT
Civil Twilight 6:23 AM CDT 6:50 PM CDT
Nautical Twilight 5:53 AM CDT 7:20 PM CDT
Astronomical Twilight 5:23 AM CDT 7:50 PM CDT
Moon 10:47 PM CDT (10/6) 12:36 PM CDT (10/6)
Length of Visible Light 12h 27m
Length of Day
11h 35m
Waning Gibbous, 65% of the Moon is Illuminated
Oct 6
Waning Gibbous
Oct 8
Last Quarter
Oct 15
New
Oct 21
First Quarter
Oct 29
Full

Hourly Weather History & Observations

Time (CDT) Temp. Windchill Dew Point Humidity Pressure Visibility Wind Dir Wind Speed Gust Speed Precip Events Conditions
12:43 AM 44.6 °F 38.1 °F 42.8 °F 93% 30.11 in 2.5 mi North 13.8 mph 20.7 mph 0.13 in Rain Light Rain
12:50 AM 44.6 °F 39.2 °F 42.8 °F 93% 30.12 in 5.0 mi North 10.4 mph 19.6 mph 0.15 in Rain Rain
12:52 AM 45.0 °F 38.5 °F 42.1 °F 90% 30.12 in 4.0 mi North 13.8 mph 19.6 mph 0.18 in Rain Heavy Rain
1:31 AM 44.6 °F 39.2 °F 42.8 °F 93% 30.13 in 6.0 mi North 10.4 mph 18.4 mph 0.16 in Rain Rain
1:52 AM 44.1 °F 39.5 °F 42.1 °F 93% 30.13 in 10.0 mi North 8.1 mph - 0.16 in Rain Light Rain
2:04 AM 44.6 °F 38.8 °F 42.8 °F 93% 30.14 in 10.0 mi North 11.5 mph - 0.00 in   Overcast
2:39 AM 44.6 °F 39.7 °F 42.8 °F 93% 30.14 in 9.0 mi North 9.2 mph - 0.00 in Rain Light Rain
2:52 AM 44.1 °F 39.0 °F 42.1 °F 93% 30.13 in 10.0 mi North 9.2 mph - 0.01 in Rain Light Rain
3:09 AM 44.6 °F 38.8 °F 42.8 °F 93% 30.14 in 10.0 mi North 11.5 mph - 0.00 in   Overcast
3:52 AM 44.1 °F 39.5 °F 41.0 °F 89% 30.13 in 10.0 mi North 8.1 mph - 0.00 in   Overcast
3:57 AM 44.6 °F 39.2 °F 41.0 °F 87% 30.14 in 10.0 mi North 10.4 mph - N/A   Overcast
4:50 AM 44.6 °F 39.2 °F 41.0 °F 87% 30.16 in 10.0 mi North 10.4 mph - N/A   Overcast
4:52 AM 44.1 °F 39.0 °F 41.0 °F 89% 30.16 in 10.0 mi North 9.2 mph - N/A   Overcast
5:52 AM 44.1 °F 39.0 °F 39.9 °F 85% 30.17 in 10.0 mi NNE 9.2 mph - N/A   Mostly Cloudy
6:03 AM 42.8 °F 37.0 °F 39.2 °F 87% 30.17 in 10.0 mi North 10.4 mph - N/A   Mostly Cloudy
6:52 AM 41.0 °F 37.1 °F 39.0 °F 93% 30.20 in 10.0 mi North 5.8 mph - N/A   Partly Cloudy
7:15 AM 42.8 °F 38.0 °F 39.2 °F 87% 30.20 in 10.0 mi North 8.1 mph - N/A   Mostly Cloudy
7:27 AM 42.8 °F 38.0 °F 39.2 °F 87% 30.21 in 10.0 mi North 8.1 mph - N/A   Scattered Clouds
7:52 AM 44.1 °F 39.0 °F 39.0 °F 82% 30.21 in 10.0 mi North 9.2 mph - N/A   Clear
8:52 AM 46.0 °F 41.0 °F 37.9 °F 73% 30.22 in 10.0 mi North 10.4 mph - N/A   Clear
9:52 AM 50.0 °F - 37.0 °F 61% 30.21 in 10.0 mi NE 9.2 mph - N/A   Clear
10:52 AM 53.1 °F - 34.0 °F 48% 30.21 in 10.0 mi NE 9.2 mph - N/A   Clear
11:52 AM 55.0 °F - 33.1 °F 43% 30.18 in 10.0 mi North 8.1 mph - N/A   Clear
12:52 PM 55.9 °F - 30.9 °F 39% 30.15 in 10.0 mi North 9.2 mph 17.3 mph N/A   Clear
1:52 PM 59.0 °F - 32.0 °F 36% 30.14 in 10.0 mi North 8.1 mph 16.1 mph N/A   Clear
2:52 PM 59.0 °F - 30.9 °F 35% 30.14 in 10.0 mi North 11.5 mph 20.7 mph N/A   Clear
3:52 PM 59.0 °F - 32.0 °F 36% 30.14 in 10.0 mi North 9.2 mph - N/A   Clear
4:52 PM 55.9 °F - 30.9 °F 39% 30.14 in 10.0 mi North 8.1 mph - N/A   Mostly Cloudy
5:52 PM 54.0 °F - 33.1 °F 45% 30.12 in 10.0 mi North 9.2 mph - N/A   Overcast
6:52 PM 53.1 °F - 34.0 °F 48% 30.15 in 10.0 mi North 9.2 mph - N/A   Overcast
7:52 PM 52.0 °F - 35.1 °F 53% 30.17 in 10.0 mi North 6.9 mph - N/A   Overcast
8:52 PM 50.0 °F - 37.9 °F 63% 30.18 in 10.0 mi North 8.1 mph - 0.00 in Rain Light Rain
9:52 PM 50.0 °F - 37.0 °F 61% 30.18 in 10.0 mi North 9.2 mph - 0.00 in   Overcast
10:52 PM 50.0 °F - 37.0 °F 61% 30.17 in 10.0 mi North 9.2 mph - N/A   Overcast
11:52 PM 48.0 °F - 37.0 °F 66% 30.14 in 10.0 mi North 6.9 mph - N/A   Scattered Clouds